Regional Weather Roundup
Issued by NWS Jackson, KY

Home | Current Version | Previous Version | Graphics & Text | Print | Product List | Glossary On
Versions: 1 2 3 4 5 6 7 8 9 10 11 12 13 14 15 16 17 18 19 20 21 22 23 24 25 26 27 28 29 30 31 32 33 34 35 36 37 38 39 40 41 42 43 44 45 46 47 48 49
000
ASUS43 KJKL 030510
RWRJKL

EAST KENTUCKY HOURLY WEATHER ROUNDUP
NATIONAL WEATHER SERVICE JACKSON KY
100 AM EDT THU SEP 03 2015

NOTE: "FAIR" INDICATES FEW OR NO CLOUDS BELOW 12,000 FEET WITH
NO SIGNIFICANT WEATHER AND/OR OBSTRUCTIONS TO VISIBILITY.

* THESE REPORTS ARE NOT UNDER NWS QUALITY CONTROL AND MAY NOT
  REPORT WEATHER SUCH AS PRECIPITATION AND FOG.

KYZ079-080-083-085-087-088-110-112-115-119-120-030600
...EASTERN KENTUCKY...

CITY           SKY/WX    TMP DP  RH WIND       PRES   REMARKS
JACKSON        CLEAR     73  66  78 CALM      30.07F
LONDON         PTCLDY    69  64  84 CALM      30.07S
SOMERSET*      CLEAR     68  68 100 CALM      30.07S
MONTICELLO*    PTCLDY    65  65 100 CALM      30.09S FOG
WILLIAMSBURG*  CLEAR     63  63 100 CALM      30.07S
MIDDLESBORO*   MOCLDY    67  66  97 CALM      30.08S
HARLAN APT*      N/A     66  66 100 MISG      30.10S
HAZARD APT*    CLEAR     68  68 100 CALM      30.07F FOG
BLACK MTN*       N/A     66  63  88 N8          N/A
PIKEVILLE APT* CLEAR     70  68  94 CALM      30.07F
BIG SANDY*     CLEAR     70  68  94 CALM      30.06S
MOREHEAD APT*  PTCLDY    68  66  94 CALM      30.07F FOG
$$

KYZ035-036-041-042-044-050-067-078-099-030600
...CENTRAL KENTUCKY...

CITY           SKY/WX    TMP DP  RH WIND       PRES   REMARKS
MT STERLING*   CLEAR     70  68  94 CALM      30.06F
FLEMING/MASON* CLEAR     72  68  88 CALM      30.05F
DANVILLE*      CLEAR     66  64  94 CALM      30.07S
RICHMOND*      CLEAR     70  66  88 CALM      30.05S
LEXINGTON      CLEAR     72  67  84 CALM      30.05F
FRANKFORT      CLEAR     71  67  87 CALM      30.04S
$$

KYZ091>093-OHZ055-061-077-WVZ005-015-034-035-042-030600
...SOUTHERN OHIO/WEST VIRGINIA...

CITY           SKY/WX    TMP DP  RH WIND       PRES   REMARKS
COVINGTON      PTCLDY    73  66  78 CALM      30.04S
COLUMBUS       CLOUDY    73  67  81 SW5       30.02F
DAYTON         PTCLDY    71  69  93 E5        30.06S
WILMINGTON       N/A     69  64  84 NE3       30.06R
HUNTINGTON     CLEAR     69  68  96 CALM      30.03F FOG
CHARLESTON     CLEAR     70  67  90 CALM      30.04S
PINEVILLE*     CLEAR     65  65 100 MISG      30.14F FOG
BECKLEY        CLEAR     65  61  87 E3        30.12F
BLUEFIELD      PTCLDY    67  61  81 W5        30.15F
$$

VAZ002-007-008-TNZ017-027-036-066-071-030600
...SOUTHWEST VIRGINIA/EAST TENNESSEE...

CITY           SKY/WX    TMP DP  RH WIND       PRES   REMARKS
WISE*          PTCLDY    66  61  82 CALM      30.16S
JONESVILLE*    PTCLDY    66  64  94 CALM      30.10S
ABINGDON*      CLEAR     68  62  81 CALM      30.11S
BRISTOL        PTCLDY    67  64  90 CALM      30.08S
KNOXVILLE      CLOUDY    76  69  79 CALM      30.04R
OAK RIDGE      CLOUDY    74  71  91 CALM      30.05S
CROSSVILLE     MOCLDY    71  68  90 CALM      30.10F
NASHVILLE      MOCLDY    77  69  76 CALM      30.02F
$$

...KEY TO REMARKS...
VSB - VISIBILITY IN MILES
WCI - WIND CHILL INDEX
HX  - HEAT INDEX

$$


USA.gov is the U.S. government's official web portal to all federal, state and local government web resources and services.